Showing default

PADRE, 64559

Orbit data source: Space-Track

PADRE, 64559 is a Bulgarian payload satellite in SSO that was launched on Mon, 23 Jun 2025 UTC via an FALCON 9 launch vehicle from the Air Force Western Test Range (AFWTR). Payload-class satellites include a variety of spacecraft equipped with specific instruments for various scientific and technological missions. These include communications satellites like Starlink; space stations such as the ISS; scientific satellites like the Hubble; Earth observation satellites from companies like Planet Labs, Umbra, and HawkEye 360; GPS; miniature CubeSats for education and research; and military/defense satellites.

Loading next visibility...
Identifier
64559, 2025-135AH
Orbit
SSO
Country
Flag of BGBG / BGR
Related business
Manufacturer
Endurosat
Mission
Operational Amateur Astronomy
Bus & Motor
CUBESAT 12U, Unknown motor
Mass
~20 kg wet, ~20 kg dry
Launch date (UTC)
2025-06-23 (1 year ago)
Launch vehicle
FALCON 9
Launch site
Air Force Western Test Range (AFWTR)
Object type
Payload
Rocket body
Debris
Shape & HBR
Box + 4 Pan, 0.3 m
Radar Cross Section
0.127 m², Medium (>0.1 m² and < 1m²)

Expand to show TLE details & history
Last TLE update: 13 hours ago

TLE from 13 hours ago
0 PADRE
1 64559U 25135AH  26171.29621242  .00000964  00000-0  99354-4 0  9993
2 64559  97.7727 284.9241 0000732 204.0371 156.0814 14.92496895 54314
Epoch: 2026-06-20T07:06Z
TLE epoch observation values (Epoch: 2026-06-20T07:06:32.753Z)
Latitude
-0.00001°
Longitude
-90.22524°
Altitude
593.662 km
Speed
7.563 km/s
True Right ascension
18h 59m 41s
True Declination
0° 00' 00"
Sunlit
Object was in full shadow at epoch
Visualization orbit readout
Latitude
Unknown
Longitude
Unknown
Altitude
Unknown
Speed
Unknown
Apparent Right ascension
Unknown
Apparent Declination
Unknown
Sunlit
N/A
Visualization observer readout
Local Sidereal Time
07:22:56
Azimuth
Unknown
Elevation
Unknown
Doppler factor
Unknown
Orbital elements
Apogee altitude
587.681 km
Perigee altitude
586.662 km
Semi-major axis
6,965.309 km
Eccentricity
0.00007
Inclination
97.7727°
RAAN
284.9241°
Arg. of periapsis
204.0371°
True anomaly
156.0848°
Mean anomaly
156.0814°
Eccentric anomaly
156.0831°
Mean motion
3.73364 °/min
Orbital period
96.42 mins
BSTAR
0.000099354
Loading maneuver chart data...
Computing Atmospheric mass density...
Loading historical data...
Loading historical data...
Loading historical data...
Loading historical data...
Loading historical data...
Loading historical data...
Loading historical data...

Documentation

Showing up to 5 results
|